GW6433 Weather Reports


time (UTC)temp
F
wind
direction
speed
knots
gust
knots
rain 1hr
in
rain 24hr
in
rain mn
in
humidity
%
barometer
mb
20260505005147 78 294 1.7 4.3 0.00 0.00 0.00 32
20260505004644 78 260 1.7 11.3 0.00 0.00 0.00 31
20260505004140 79 292 1.7 5.2 0.00 0.00 0.00 32
20260505003638 79 211 4.3 7.0 0.00 0.00 0.00 31
20260505003135 78 172 3.5 9.6 0.00 0.00 0.00 31
20260505002631 79 146 1.7 7.0 0.00 0.00 0.00 30
20260505002129 79 271 0.9 5.2 0.00 0.00 0.00 31
20260505001626 79 260 4.3 10.4 0.00 0.00 0.00 30
20260505001124 80 337 3.5 8.7 0.00 0.00 0.00 30
20260505000621 80 190 2.6 9.6 0.00 0.00 0.00 30
20260505000119 80 231 3.5 6.1 0.00 0.00 0.00 30
20260504235615 80 58 1.7 6.1 0.00 0.00 0.00 30
20260504235111 80 220 0.9 7.8 0.00 0.00 0.00 31
20260504234609 80 252 7.8 9.6 0.00 0.00 0.00 30
20260504234106 79 218 2.6 7.8 0.00 0.00 0.00 31
20260504233601 80 287 3.5 9.6 0.00 0.00 0.00 30
20260504233058 80 271 1.7 9.6 0.00 0.00 0.00 31
20260504232555 80 253 2.6 7.8 0.00 0.00 0.00 30
20260504232052 81 253 2.6 7.8 0.00 0.00 0.00 30
20260504231549 81 229 2.6 5.2 0.00 0.00 0.00 30
20260504231045 80 323 2.6 9.6 0.00 0.00 0.00 29
20260504230541 81 273 8.7 14.8 0.00 0.00 0.00 28
20260504230041 82 262 2.6 11.3 0.00 0.00 0.00 28
20260504225537 83 237 1.7 5.2 0.00 0.00 0.00 28
20260504225034 81 66 0.0 12.2 0.00 0.00 0.00 28
20260504224531 82 217 3.5 4.3 0.00 0.00 0.00 29
20260504224028 82 247 2.6 6.1 0.00 0.00 0.00 28
20260504223525 81 296 2.6 10.4 0.00 0.00 0.00 28
20260504223020 82 252 2.6 12.2 0.00 0.00 0.00 27
20260504222517 82 199 2.6 7.0 0.00 0.00 0.00 27
20260504222015 83 285 2.6 4.3 0.00 0.00 0.00 29
20260504221512 82 153 1.7 10.4 0.00 0.00 0.00 29
20260504221009 81 252 2.6 7.0 0.00 0.00 0.00 28
20260504220505 81 237 1.7 10.4 0.00 0.00 0.00 29
20260504220002 82 203 1.7 9.6 0.00 0.00 0.00 29
20260504215459 82 224 3.5 8.7 0.00 0.00 0.00 29
20260504214956 82 203 1.7 7.0 0.00 0.00 0.00 28
20260504214452 82 216 3.5 6.1 0.00 0.00 0.00 30
20260504213949 81 258 7.8 9.6 0.00 0.00 0.00 30
20260504213444 81 331 1.7 7.8 0.00 0.00 0.00 30
20260504212942 81 166 2.6 8.7 0.00 0.00 0.00 29
20260504212438 82 236 2.6 9.6 0.00 0.00 0.00 30
20260504211936 81 207 3.5 7.8 0.00 0.00 0.00 29
20260504211432 81 217 2.6 7.8 0.00 0.00 0.00 31
20260504210930 81 260 6.1 12.2 0.00 0.00 0.00 29
20260504210426 80 246 2.6 8.7 0.00 0.00 0.00 30
20260504205923 80 297 1.7 7.8 0.00 0.00 0.00 30
20260504205421 80 264 4.3 12.2 0.00 0.00 0.00 29
20260504204919 80 279 4.3 9.6 0.00 0.00 0.00 30
20260504204417 81 250 2.6 7.0 0.00 0.00 0.00 30
20260504203916 80 261 3.5 10.4 0.00 0.00 0.00 30
20260504203413 81 279 3.5 7.0 0.00 0.00 0.00 30
20260504202909 81 173 1.7 5.2 0.00 0.00 0.00 30
20260504202406 80 224 3.5 15.6 0.00 0.00 0.00 30
20260504201902 80 238 1.7 7.0 0.00 0.00 0.00 31
20260504201400 81 119 2.6 7.0 0.00 0.00 0.00 29
20260504200857 81 212 4.3 7.0 0.00 0.00 0.00 30
20260504200354 80 206 4.3 7.8 0.00 0.00 0.00 31
20260504195850 79 238 1.7 8.7 0.00 0.00 0.00 31
20260504195346 80 220 4.3 8.7 0.00 0.00 0.00 30
20260504194843 79 213 0.9 5.2 0.00 0.00 0.00 31
20260504194339 79 189 2.6 5.2 0.00 0.00 0.00 32
20260504193835 79 239 1.7 6.1 0.00 0.00 0.00 31
20260504193332 79 276 2.6 7.0 0.00 0.00 0.00 32
20260504192831 78 293 3.5 13.9 0.00 0.00 0.00 32
20260504192329 78 198 0.0 5.2 0.00 0.00 0.00 33
20260504191827 78 189 3.5 7.8 0.00 0.00 0.00 31
20260504191324 78 290 1.7 6.1 0.00 0.00 0.00 32
20260504190819 78 249 2.6 11.3 0.00 0.00 0.00 32
20260504190316 78 224 4.3 5.2 0.00 0.00 0.00 32
20260504185812 78 290 1.7 5.2 0.00 0.00 0.00 33
20260504185309 78 241 0.0 7.8 0.00 0.00 0.00 32
20260504184805 77 283 3.5 6.1 0.00 0.00 0.00 33
20260504184301 77 284 2.6 7.8 0.00 0.00 0.00 32
20260504183757 78 233 1.7 3.5 0.00 0.00 0.00 33
20260504183254 77 159 0.9 7.8 0.00 0.00 0.00 33
20260504182752 77 282 1.7 4.3 0.00 0.00 0.00 33
20260504182249 77 269 1.7 7.8 0.00 0.00 0.00 32
20260504181747 77 195 1.7 6.1 0.00 0.00 0.00 32
20260504181244 77 204 2.6 8.7 0.00 0.00 0.00 33
20260504180743 76 348 0.9 3.5 0.00 0.00 0.00 34
20260504180241 76 206 1.7 4.3 0.00 0.00 0.00 34
20260504175739 76 187 1.7 9.6 0.00 0.00 0.00 34
20260504175235 76 338 0.0 4.3 0.00 0.00 0.00 34
20260504174733 76 284 1.7 2.6 0.00 0.00 0.00 34
20260504174231 76 290 1.7 6.1 0.00 0.00 0.00 34
20260504173727 77 95 1.7 2.6 0.00 0.00 0.00 33
20260504173224 76 256 0.0 2.6 0.00 0.00 0.00 34
20260504172721 75 193 2.6 4.3 0.00 0.00 0.00 35
20260504172217 75 215 1.7 8.7 0.00 0.00 0.00 35
20260504171714 74 229 0.0 4.3 0.00 0.00 0.00 37
20260504171211 73 303 0.0 3.5 0.00 0.00 0.00 42
20260504170707 74 17 0.0 1.7 0.00 0.00 0.00 38
20260504170205 73 205 0.0 1.7 0.00 0.00 0.00 40
20260504160124 65 69 0.0 1.7 0.00 0.00 0.00 53
20260504151050 58 89 0.0 0.9 0.00 0.00 0.00 66
20260504150548 57 106 0.0 1.7 0.00 0.00 0.00 67
20260504141014 45 282 0.0 0.9 0.00 0.00 0.00 88
20260504140510 45 327 0.0 1.7 0.00 0.00 0.00 88
20260504130435 43 305 0.0 1.7 0.00 0.00 0.00 88
20260504110322 46 211 0.0 1.7 0.00 0.00 0.00 81
20260504100240 48 58 0.0 0.9 0.00 0.00 0.00 73
20260504081633 52 245 0.0 2.6 0.00 0.00 0.00 64
20260504081129 52 283 0.0 2.6 0.00 0.00 0.00 63
20260504080626 53 269 0.0 2.6 0.00 0.00 0.00 62
20260504080122 53 285 1.7 1.7 0.00 0.00 0.00 61
20260504050438 61 187 0.0 1.7 0.00 0.00 0.00 55
20260504045936 61 278 0.0 0.9 0.00 0.00 0.00 55
20260504045431 62 223 0.0 1.7 0.00 0.00 0.00 52
20260504044927 63 294 0.0 1.7 0.00 0.00 0.00 51
20260504044425 64 318 0.9 1.7 0.00 0.00 0.00 49
20260504043922 65 240 0.0 0.9 0.00 0.00 0.00 47
20260504043419 66 283 0.0 3.5 0.00 0.00 0.00 44
20260504042917 66 336 0.0 1.7 0.00 0.00 0.00 43
20260504042413 66 241 0.0 4.3 0.00 0.00 0.00 43
20260504041909 66 253 0.9 2.6 0.00 0.00 0.00 42
20260504041406 67 234 1.7 3.5 0.00 0.00 0.00 42
20260504040902 67 208 0.0 1.7 0.00 0.00 0.00 42
20260504040359 68 253 0.0 2.6 0.00 0.00 0.00 40
20260504035855 67 261 1.7 3.5 0.00 0.00 0.00 41
20260504035353 68 269 0.0 2.6 0.00 0.00 0.00 41
20260504034849 68 269 0.0 1.7 0.00 0.00 0.00 41
20260504034347 69 292 1.7 2.6 0.00 0.00 0.00 38
20260504033844 69 177 0.9 5.2 0.00 0.00 0.00 38
20260504033342 69 288 0.9 6.1 0.00 0.00 0.00 37
20260504032838 70 243 0.0 1.7 0.00 0.00 0.00 37
20260504032336 70 249 0.0 2.6 0.00 0.00 0.00 36
20260504031832 71 234 1.7 4.3 0.00 0.00 0.00 35
20260504031330 72 210 0.9 2.6 0.00 0.00 0.00 34
20260504030826 72 241 2.6 3.5 0.00 0.00 0.00 33
20260504030323 73 239 1.7 4.3 0.00 0.00 0.00 33
20260504025819 73 230 1.7 6.1 0.00 0.00 0.00 32
20260504025317 73 250 1.7 6.1 0.00 0.00 0.00 32
20260504024813 73 257 2.6 3.5 0.00 0.00 0.00 31
20260504024309 73 202 0.0 2.6 0.00 0.00 0.00 31
20260504023806 74 235 0.9 4.3 0.00 0.00 0.00 31
20260504023303 74 351 0.0 5.2 0.00 0.00 0.00 31
20260504022759 75 279 0.0 4.3 0.00 0.00 0.00 31
20260504022255 75 269 0.0 6.1 0.00 0.00 0.00 31
20260504021752 75 227 1.7 5.2 0.00 0.00 0.00 31
20260504021250 76 209 2.6 7.8 0.00 0.00 0.00 31
20260504020746 76 277 0.0 5.2 0.00 0.00 0.00 32
20260504020243 77 222 0.0 2.6 0.00 0.00 0.00 32
20260504015739 77 214 1.7 2.6 0.00 0.00 0.00 31
20260504015236 78 188 2.6 6.1 0.00 0.00 0.00 30
20260504014731 79 255 0.9 6.1 0.00 0.00 0.00 29
20260504014228 80 355 1.7 9.6 0.00 0.00 0.00 28
20260504013726 81 224 1.7 2.6 0.00 0.00 0.00 27
20260504013224 81 280 1.7 2.6 0.00 0.00 0.00 27
20260504012720 81 197 1.7 3.5 0.00 0.00 0.00 27
20260504012218 81 172 1.7 3.5 0.00 0.00 0.00 27
20260504011714 82 264 1.7 8.7 0.00 0.00 0.00 26
20260504011211 82 267 1.7 4.3 0.00 0.00 0.00 27
20260504010707 82 202 1.7 5.2 0.00 0.00 0.00 26
20260504010203 82 245 0.9 4.3 0.00 0.00 0.00 26
20260504005659 82 189 1.7 6.1 0.00 0.00 0.00 26